Time,TemperatureF,DewpointF,PressureIn,WindDirection,WindDirectionDegrees,WindSpeedMPH,WindSpeedGustMPH,Humidity,HourlyPrecipIn,Conditions,Clouds,dailyrainin,SoftwareType,DateUTC
2013-05-20 00:03:00,72.0,64.0,-100.00,SE,130,8.0,11.0,74,0.00,,,-99.99,,2013-05-20 04:03:00,
2013-05-20 00:13:00,72.0,64.0,-100.00,SE,140,6.0,9.0,75,0.00,,,-99.99,,2013-05-20 04:13:00,
2013-05-20 00:23:00,71.0,64.0,-100.00,SE,145,5.0,10.0,77,0.00,,,-99.99,,2013-05-20 04:23:00,
2013-05-20 00:33:00,71.0,64.0,-100.00,SE,145,7.0,9.0,78,0.00,,,-99.99,,2013-05-20 04:33:00,
2013-05-20 00:42:00,71.0,64.0,-100.00,SE,140,6.0,9.0,79,0.00,,,-99.99,,2013-05-20 04:42:00,
2013-05-20 00:52:00,71.0,64.0,-100.00,SE,135,7.0,9.0,80,0.00,,,-99.99,,2013-05-20 04:52:00,
2013-05-20 01:02:00,71.0,64.0,-100.00,SE,140,6.0,9.0,80,0.00,,,-99.99,,2013-05-20 05:02:00,
2013-05-20 01:12:00,70.0,64.0,-100.00,SE,145,4.0,9.0,81,0.00,,,-99.99,,2013-05-20 05:12:00,
2013-05-20 01:22:00,70.0,64.0,-100.00,SSE,150,6.0,7.0,81,0.00,,,-99.99,,2013-05-20 05:22:00,
2013-05-20 01:32:00,70.0,64.0,-100.00,SSE,155,5.0,7.0,82,0.00,,,-99.99,,2013-05-20 05:32:00,
2013-05-20 01:42:00,70.0,64.0,-100.00,SSE,150,6.0,7.0,82,0.00,,,-99.99,,2013-05-20 05:42:00,
2013-05-20 01:51:00,70.0,64.0,-100.00,SSE,150,6.0,7.0,83,0.00,,,-99.99,,2013-05-20 05:51:00,
2013-05-20 02:01:00,70.0,65.0,-100.00,SE,145,6.0,7.0,83,0.00,,,-99.99,,2013-05-20 06:01:00,
2013-05-20 02:11:00,70.0,65.0,-100.00,SSE,150,5.0,8.0,84,0.00,,,-99.99,,2013-05-20 06:11:00,
2013-05-20 02:21:00,69.0,64.0,-100.00,SSE,150,5.0,7.0,84,0.00,,,-99.99,,2013-05-20 06:21:00,
2013-05-20 02:32:00,69.0,64.0,-100.00,SSE,155,4.0,7.0,84,0.00,,,-99.99,,2013-05-20 06:32:00,
2013-05-20 02:42:00,69.0,65.0,-100.00,SSE,165,4.0,7.0,85,0.00,,,-99.99,,2013-05-20 06:42:00,
2013-05-20 02:52:00,69.0,65.0,-100.00,SSE,150,3.0,7.0,86,0.00,,,-99.99,,2013-05-20 06:52:00,
2013-05-20 03:02:00,69.0,64.0,-100.00,SSE,155,3.0,6.0,85,0.00,,,-99.99,,2013-05-20 07:02:00,
2013-05-20 03:12:00,69.0,64.0,-100.00,SE,140,6.0,6.0,85,0.00,,,-99.99,,2013-05-20 07:12:00,
2013-05-20 03:21:00,69.0,64.0,-100.00,SE,140,6.0,6.0,85,0.00,,,-99.99,,2013-05-20 07:21:00,
2013-05-20 03:32:00,69.0,64.0,-100.00,SE,140,6.0,6.0,85,0.00,,,-99.99,,2013-05-20 07:32:00,
2013-05-20 03:42:00,69.0,64.0,-100.00,SE,140,6.0,6.0,85,0.00,,,-99.99,,2013-05-20 07:42:00,
2013-05-20 03:52:00,69.0,64.0,-100.00,SE,140,6.0,6.0,85,0.00,,,-99.99,,2013-05-20 07:52:00,
2013-05-20 05:12:00,68.0,65.0,-100.00,SSE,150,4.0,5.0,90,0.00,,,-99.99,,2013-05-20 09:12:00,
2013-05-20 05:22:00,68.0,65.0,-100.00,SSE,150,4.0,5.0,90,0.00,,,-99.99,,2013-05-20 09:22:00,
2013-05-20 05:33:00,68.0,65.0,-100.00,SSE,150,4.0,6.0,91,0.00,,,-99.99,,2013-05-20 09:33:00,
2013-05-20 05:43:00,68.0,65.0,-100.00,SSE,150,4.0,6.0,91,0.00,,,-99.99,,2013-05-20 09:43:00,
2013-05-20 05:52:00,69.0,66.0,-100.00,South,170,4.0,8.0,91,0.00,,,-99.99,,2013-05-20 09:52:00,
2013-05-20 06:03:00,69.0,67.0,-100.00,SSE,165,6.0,9.0,91,0.00,,,-99.99,,2013-05-20 10:03:00,
2013-05-20 06:12:00,69.0,67.0,-100.00,SSE,165,6.0,8.0,91,0.00,,,-99.99,,2013-05-20 10:12:00,
2013-05-20 06:22:00,69.0,67.0,-100.00,SSE,165,5.0,9.0,92,0.00,,,-99.99,,2013-05-20 10:22:00,
2013-05-20 06:33:00,69.0,67.0,-100.00,SSE,165,4.0,9.0,92,0.00,,,-99.99,,2013-05-20 10:33:00,
2013-05-20 06:42:00,69.0,67.0,-100.00,SSE,165,4.0,9.0,92,0.00,,,-99.99,,2013-05-20 10:42:00,
2013-05-20 06:52:00,69.0,67.0,-100.00,South,170,6.0,10.0,93,0.00,,,-99.99,,2013-05-20 10:52:00,
2013-05-20 07:02:00,69.0,67.0,-100.00,SSE,165,6.0,10.0,93,0.00,,,-99.99,,2013-05-20 11:02:00,
2013-05-20 07:12:00,69.0,67.0,-100.00,SSE,165,6.0,9.0,93,0.00,,,-99.99,,2013-05-20 11:12:00,
2013-05-20 07:21:00,69.0,67.0,-100.00,South,170,6.0,11.0,93,0.00,,,-99.99,,2013-05-20 11:21:00,
2013-05-20 07:32:00,69.0,68.0,-100.00,South,170,6.0,12.0,94,0.00,,,-99.99,,2013-05-20 11:32:00,
2013-05-20 07:42:00,70.0,68.0,-100.00,South,170,7.0,12.0,93,0.00,,,-99.99,,2013-05-20 11:42:00,
2013-05-20 07:51:00,70.0,68.0,-100.00,South,170,6.0,13.0,93,0.00,,,-99.99,,2013-05-20 11:51:00,
2013-05-20 08:01:00,70.0,68.0,-100.00,South,170,6.0,11.0,93,0.00,,,-99.99,,2013-05-20 12:01:00,
2013-05-20 08:11:00,71.0,68.0,-100.00,South,175,8.0,14.0,92,0.00,,,-99.99,,2013-05-20 12:11:00,
2013-05-20 08:21:00,71.0,69.0,-100.00,South,190,9.0,13.0,92,0.00,,,-99.99,,2013-05-20 12:21:00,
2013-05-20 08:32:00,71.0,68.0,-100.00,South,190,9.0,16.0,93,0.00,,,-99.99,,2013-05-20 12:32:00,
2013-05-20 08:41:00,71.0,68.0,-100.00,South,175,8.0,13.0,92,0.00,,,-99.99,,2013-05-20 12:41:00,
2013-05-20 08:52:00,71.0,69.0,-100.00,South,185,6.0,12.0,91,0.00,,,-99.99,,2013-05-20 12:52:00,
2013-05-20 09:01:00,72.0,69.0,-100.00,SSW,195,6.0,14.0,90,0.00,,,-99.99,,2013-05-20 13:01:00,
2013-05-20 09:11:00,73.0,69.0,-100.00,SSW,205,4.0,15.0,88,0.00,,,-99.99,,2013-05-20 13:11:00,
2013-05-20 09:22:00,73.0,69.0,-100.00,South,185,5.0,10.0,87,0.00,,,-99.99,,2013-05-20 13:22:00,
2013-05-20 09:32:00,73.0,69.0,-100.00,South,175,8.0,12.0,86,0.00,,,-99.99,,2013-05-20 13:32:00,
2013-05-20 09:41:00,75.0,69.0,-100.00,SW,225,5.0,10.0,83,0.00,,,-99.99,,2013-05-20 13:41:00,
2013-05-20 09:52:00,75.0,69.0,-100.00,South,180,8.0,13.0,81,0.00,,,-99.99,,2013-05-20 13:52:00,
2013-05-20 10:01:00,75.0,69.0,-100.00,South,185,9.0,14.0,80,0.00,,,-99.99,,2013-05-20 14:01:00,
2013-05-20 10:11:00,75.0,69.0,-100.00,South,180,9.0,14.0,79,0.00,,,-99.99,,2013-05-20 14:11:00,
2013-05-20 10:22:00,75.0,69.0,-100.00,South,190,7.0,14.0,80,0.00,,,-99.99,,2013-05-20 14:22:00,
2013-05-20 10:32:00,75.0,69.0,-100.00,South,190,6.0,12.0,80,0.00,,,-99.99,,2013-05-20 14:32:00,
2013-05-20 10:42:00,76.0,69.0,-100.00,West,270,4.0,12.0,79,0.00,,,-99.99,,2013-05-20 14:42:00,
2013-05-20 10:52:00,76.0,69.0,-100.00,South,185,6.0,12.0,80,0.00,,,-99.99,,2013-05-20 14:52:00,
2013-05-20 11:01:00,78.0,70.0,-100.00,SSE,160,5.0,15.0,76,0.00,,,-99.99,,2013-05-20 15:01:00,
2013-05-20 11:11:00,78.0,69.0,-100.00,SW,215,4.0,16.0,75,0.00,,,-99.99,,2013-05-20 15:11:00,
2013-05-20 11:21:00,78.0,69.0,-100.00,South,170,8.0,12.0,73,0.00,,,-99.99,,2013-05-20 15:21:00,
2013-05-20 11:33:00,79.0,69.0,-100.00,South,170,7.0,13.0,71,0.00,,,-99.99,,2013-05-20 15:33:00,
2013-05-20 11:42:00,79.0,69.0,-100.00,SSE,160,7.0,16.0,72,0.00,,,-99.99,,2013-05-20 15:42:00,
2013-05-20 11:53:00,78.0,68.0,-100.00,South,170,6.0,12.0,71,0.00,,,-99.99,,2013-05-20 15:53:00,
2013-05-20 12:03:00,79.0,69.0,-100.00,South,170,7.0,13.0,71,0.00,,,-99.99,,2013-05-20 16:03:00,
2013-05-20 12:13:00,79.0,69.0,-100.00,South,185,7.0,14.0,69,0.00,,,-99.99,,2013-05-20 16:13:00,
2013-05-20 12:22:00,79.0,69.0,-100.00,SSE,165,8.0,13.0,71,0.00,,,-99.99,,2013-05-20 16:22:00,
2013-05-20 12:33:00,80.0,68.0,-100.00,SSW,200,6.0,14.0,66,0.00,,,-99.99,,2013-05-20 16:33:00,
2013-05-20 12:42:00,80.0,69.0,-100.00,South,180,9.0,16.0,68,0.00,,,-99.99,,2013-05-20 16:42:00,
2013-05-20 12:52:00,81.0,68.0,-100.00,SE,145,9.0,12.0,64,0.00,,,-99.99,,2013-05-20 16:52:00,
2013-05-20 13:02:00,81.0,68.0,-100.00,South,170,10.0,15.0,66,0.00,,,-99.99,,2013-05-20 17:02:00,
2013-05-20 13:12:00,81.0,68.0,-100.00,SSE,155,9.0,17.0,64,0.00,,,-99.99,,2013-05-20 17:12:00,
2013-05-20 13:22:00,80.0,67.0,-100.00,South,175,9.0,16.0,64,0.00,,,-99.99,,2013-05-20 17:22:00,
2013-05-20 13:33:00,82.0,68.0,-100.00,South,170,7.0,18.0,62,0.00,,,-99.99,,2013-05-20 17:33:00,
2013-05-20 13:45:00,81.0,68.0,-100.00,South,170,10.0,19.0,64,0.00,,,-99.99,,2013-05-20 17:45:00,
2013-05-20 13:53:00,82.0,67.0,-100.00,SSE,155,7.0,19.0,62,0.00,,,-99.99,,2013-05-20 17:53:00,
2013-05-20 14:02:00,81.0,67.0,-100.00,South,180,13.0,21.0,62,0.00,,,-99.99,,2013-05-20 18:02:00,
2013-05-20 14:12:00,83.0,67.0,-100.00,South,175,10.0,17.0,59,0.00,,,-99.99,,2013-05-20 18:12:00,
2013-05-20 14:23:00,82.0,68.0,-100.00,SSE,165,11.0,22.0,61,0.00,,,-99.99,,2013-05-20 18:23:00,
2013-05-20 14:33:00,83.0,66.0,-100.00,South,190,9.0,17.0,56,0.00,,,-99.99,,2013-05-20 18:33:00,
2013-05-20 14:42:00,83.0,68.0,-100.00,South,185,7.0,18.0,60,0.00,,,-99.99,,2013-05-20 18:42:00,
2013-05-20 14:55:00,83.0,67.0,-100.00,South,185,11.0,21.0,59,0.00,,,-99.99,,2013-05-20 18:55:00,
2013-05-20 15:04:00,82.0,67.0,-100.00,South,170,10.0,19.0,60,0.00,,,-99.99,,2013-05-20 19:04:00,
2013-05-20 15:11:00,83.0,67.0,-100.00,South,180,9.0,15.0,58,0.00,,,-99.99,,2013-05-20 19:11:00,
2013-05-20 15:21:00,83.0,67.0,-100.00,South,170,12.0,21.0,58,0.00,,,-99.99,,2013-05-20 19:21:00,
2013-05-20 15:32:00,83.0,67.0,-100.00,SSE,165,12.0,21.0,57,0.00,,,-99.99,,2013-05-20 19:32:00,
2013-05-20 15:41:00,83.0,66.0,-100.00,South,185,12.0,21.0,57,0.00,,,-99.99,,2013-05-20 19:41:00,
2013-05-20 15:52:00,83.0,66.0,-100.00,South,175,13.0,21.0,56,0.00,,,-99.99,,2013-05-20 19:52:00,
2013-05-20 16:01:00,83.0,67.0,-100.00,SSE,165,10.0,19.0,57,0.00,,,-99.99,,2013-05-20 20:01:00,
2013-05-20 16:12:00,84.0,66.0,-100.00,South,180,12.0,22.0,54,0.00,,,-99.99,,2013-05-20 20:12:00,
2013-05-20 16:21:00,83.0,66.0,-100.00,South,170,11.0,21.0,55,0.00,,,-99.99,,2013-05-20 20:21:00,
2013-05-20 16:32:00,84.0,66.0,-100.00,South,170,10.0,20.0,55,0.00,,,-99.99,,2013-05-20 20:32:00,
2013-05-20 16:42:00,84.0,66.0,-100.00,South,180,16.0,27.0,55,0.00,,,-99.99,,2013-05-20 20:42:00,
2013-05-20 16:52:00,84.0,67.0,-100.00,South,180,14.0,24.0,56,0.00,,,-99.99,,2013-05-20 20:52:00,
2013-05-20 17:01:00,84.0,65.0,-100.00,South,170,15.0,25.0,53,0.00,,,-99.99,,2013-05-20 21:01:00,
2013-05-20 17:11:00,84.0,65.0,-100.00,SSE,165,14.0,25.0,51,0.00,,,-99.99,,2013-05-20 21:11:00,
2013-05-20 17:21:00,85.0,65.0,-100.00,South,180,13.0,24.0,52,0.00,,,-99.99,,2013-05-20 21:21:00,
2013-05-20 17:33:00,84.0,65.0,-100.00,South,185,14.0,22.0,53,0.00,,,-99.99,,2013-05-20 21:33:00,
2013-05-20 17:43:00,84.0,65.0,-100.00,South,180,13.0,25.0,52,0.00,,,-99.99,,2013-05-20 21:43:00,
2013-05-20 17:53:00,84.0,65.0,-100.00,South,180,10.0,21.0,53,0.00,,,-99.99,,2013-05-20 21:53:00,
2013-05-20 18:02:00,84.0,65.0,-100.00,South,185,14.0,26.0,53,0.00,,,-99.99,,2013-05-20 22:02:00,
2013-05-20 18:12:00,84.0,65.0,-100.00,SSE,165,11.0,21.0,53,0.00,,,-99.99,,2013-05-20 22:12:00,
2013-05-20 18:23:00,84.0,65.0,-100.00,SSE,165,11.0,21.0,53,0.00,,,-99.99,,2013-05-20 22:23:00,
2013-05-20 18:33:00,84.0,66.0,-100.00,South,175,11.0,21.0,54,0.00,,,-99.99,,2013-05-20 22:33:00,
2013-05-20 18:42:00,83.0,66.0,-100.00,South,175,11.0,22.0,55,0.00,,,-99.99,,2013-05-20 22:42:00,
2013-05-20 18:52:00,83.0,65.0,-100.00,South,175,14.0,24.0,54,0.00,,,-99.99,,2013-05-20 22:52:00,
2013-05-20 19:03:00,83.0,65.0,-100.00,South,185,14.0,24.0,55,0.00,,,-99.99,,2013-05-20 23:03:00,
2013-05-20 19:12:00,83.0,65.0,-100.00,South,175,12.0,22.0,55,0.00,,,-99.99,,2013-05-20 23:12:00,
2013-05-20 19:22:00,83.0,65.0,-100.00,South,175,12.0,22.0,55,0.00,,,-99.99,,2013-05-20 23:22:00,
2013-05-20 19:32:00,83.0,66.0,-100.00,South,180,11.0,19.0,56,0.00,,,-99.99,,2013-05-20 23:32:00,
2013-05-20 19:42:00,82.0,65.0,-100.00,South,170,11.0,18.0,57,0.00,,,-99.99,,2013-05-20 23:42:00,
2013-05-20 19:52:00,82.0,65.0,-100.00,South,185,10.0,18.0,58,0.00,,,-99.99,,2013-05-20 23:52:00,
2013-05-20 20:01:00,81.0,66.0,-100.00,South,185,10.0,16.0,59,0.00,,,-99.99,,2013-05-21 00:01:00,
2013-05-20 20:11:00,81.0,66.0,-100.00,South,180,8.0,15.0,60,0.00,,,-99.99,,2013-05-21 00:11:00,
2013-05-20 20:21:00,81.0,66.0,-100.00,South,185,10.0,13.0,60,0.00,,,-99.99,,2013-05-21 00:21:00,
2013-05-20 20:32:00,80.0,66.0,-100.00,South,170,10.0,14.0,61,0.00,,,-99.99,,2013-05-21 00:32:00,
2013-05-20 20:42:00,80.0,66.0,-100.00,SSE,165,6.0,12.0,62,0.00,,,-99.99,,2013-05-21 00:42:00,
2013-05-20 20:52:00,80.0,66.0,-100.00,South,170,4.0,11.0,63,0.00,,,-99.99,,2013-05-21 00:52:00,
2013-05-20 21:01:00,79.0,66.0,-100.00,South,170,7.0,11.0,63,0.00,,,-99.99,,2013-05-21 01:01:00,
2013-05-20 21:11:00,79.0,66.0,-100.00,South,170,7.0,12.0,63,0.00,,,-99.99,,2013-05-21 01:11:00,
2013-05-20 21:22:00,79.0,66.0,-100.00,South,170,6.0,11.0,64,0.00,,,-99.99,,2013-05-21 01:22:00,
2013-05-20 21:32:00,78.0,66.0,-100.00,SSE,165,6.0,12.0,65,0.00,,,-99.99,,2013-05-21 01:32:00,
2013-05-20 21:42:00,78.0,66.0,-100.00,South,175,7.0,12.0,65,0.00,,,-99.99,,2013-05-21 01:42:00,
2013-05-20 21:52:00,78.0,66.0,-100.00,South,175,6.0,12.0,66,0.00,,,-99.99,,2013-05-21 01:52:00,
2013-05-20 22:02:00,78.0,65.0,-100.00,South,170,6.0,12.0,66,0.00,,,-99.99,,2013-05-21 02:02:00,
2013-05-20 22:11:00,77.0,65.0,-100.00,South,170,7.0,12.0,67,0.00,,,-99.99,,2013-05-21 02:11:00,
2013-05-20 22:21:00,77.0,65.0,-100.00,South,175,7.0,12.0,67,0.00,,,-99.99,,2013-05-21 02:21:00,
2013-05-20 22:32:00,76.0,65.0,-100.00,South,170,6.0,12.0,69,0.00,,,-99.99,,2013-05-21 02:32:00,
2013-05-20 22:42:00,76.0,65.0,-100.00,SSE,165,6.0,11.0,70,0.00,,,-99.99,,2013-05-21 02:42:00,
2013-05-20 22:52:00,76.0,65.0,-100.00,South,175,6.0,9.0,70,0.00,,,-99.99,,2013-05-21 02:52:00,
2013-05-20 23:02:00,76.0,65.0,-100.00,SSE,165,4.0,10.0,71,0.00,,,-99.99,,2013-05-21 03:02:00,
2013-05-20 23:11:00,75.0,65.0,-100.00,SSE,160,4.0,8.0,72,0.00,,,-99.99,,2013-05-21 03:11:00,
2013-05-20 23:21:00,75.0,65.0,-100.00,SSE,160,4.0,6.0,72,0.00,,,-99.99,,2013-05-21 03:21:00,
2013-05-20 23:33:00,74.0,65.0,-100.00,South,170,4.0,9.0,72,0.00,,,-99.99,,2013-05-21 03:33:00,
2013-05-20 23:43:00,74.0,65.0,-100.00,South,170,4.0,7.0,73,0.00,,,-99.99,,2013-05-21 03:43:00,
2013-05-20 23:53:00,74.0,65.0,-100.00,SSE,165,4.0,7.0,74,0.00,,,-99.99,,2013-05-21 03:53:00,